Regional Weather Roundup
Issued by NWS Sioux Falls, SD

Home | Current Version | Previous Version | Text Only | Print | Product List | Glossary Off
Versions: 1 2 3 4 5 6 7 8 9 10 11 12 13 14 15 16 17 18 19 20 21 22 23 24 25 26 27 28 29 30 31 32 33 34 35 36 37 38 39 40 41 42 43 44 45 46 47 48 49 50

000
ASUS43 KFSD 012310
RWRFSD

WEATHER ROUNDUP FOR SE SOUTH DAKOTA/SW MINNESOTA/NW IOWA
NATIONAL WEATHER SERVICE SIOUX FALLS SD
600 PM CDT FRI AUG 01 2014

NOTE: "FAIR" INDICATES FEW OR NO CLOUDS BELOW 12,000 FEET WITH NO
SIGNIFICANT WEATHER AND OR OBSTRUCTIONS TO VISIBILITY.


SDZ038>040-050-052>070-020000-
SOUTHEAST SOUTH DAKOTA

CITY           SKY/WX    TMP DP  RH WIND       PRES   REMARKS
CHAMBERLAIN    NOT AVBL
HURON          SUNNY     83  57  41 SE7       30.04F
MADISON        FAIR      79  55  44 CALM      30.10S
MITCHELL       SUNNY     83  57  41 SE9       30.07F
SIOUX FALLS    MOSUNNY   80  60  50 CALM      30.08F
WINNER         FAIR      93  52  24 SE10      30.02F
YANKTON        SUNNY     81  55  41 E6        30.09S
$$

MNZ071-072-080-081-089-090-097-098-020000-
SOUTHWEST MINNESOTA

CITY           SKY/WX    TMP DP  RH WIND       PRES   REMARKS
FAIRMONT       SUNNY     82  48  30 NW6       30.09R
JACKSON        SUNNY     79  54  41 CALM      30.10S
LUVERNE        SUNNY     81  57  44 SW3       30.09F
MARSHALL       SUNNY     82  55  39 W3        30.07S
MONTEVIDEO     SUNNY     84  59  42 CALM      30.07S
PIPESTONE      PTSUNNY   79  57  47 SW3       30.10F
REDWOOD FALLS  MOSUNNY   79  61  53 W13       30.06S
TRACY          SUNNY     82  57  43 CALM      30.09S
WINDOM         SUNNY     81  55  41 CALM      30.09S
WORTHINGTON    SUNNY     81  57  44 E3        30.11F
$$

IAZ001>003-012>014-020>022-031-032-NEZ013-014-SDZ071-020000-
NORTHWEST IOWA

CITY           SKY/WX    TMP DP  RH WIND       PRES   REMARKS
ESTHERVILLE    SUNNY     80  56  43 N6        30.09S
SIOUX CITY     MOSUNNY   83  60  45 S3        30.07F
SPENCER        MOSUNNY   83  56  39 CALM      30.09S
$$

ABBREVIATIONS USED IN REMARKS
   TC - TEMPERATURE IN CELSIUS
  WCI - WIND CHILL INDEX
   HX - HEAT INDEX
  VSB - VISIBILITY




USA.gov is the U.S. government's official web portal to all federal, state and local government web resources and services.